Weather History for KDKK - November, 2013

Change the Weather History Date:

Sunday, November 3, 2013

  Actual Average Record
Temperature  
Mean Temperature 34 °F -  
Max Temperature 39 °F 57 °F 79 °F (1961)
Min Temperature 28 °F 42 °F 20 °F (1984)
Degree Days  
Heating Degree Days 32    
Moisture  
Dew Point 28 °F    
Average Humidity 78    
Maximum Humidity 93    
Minimum Humidity 55    
Precipitation  
Precipitation 0.11 in - - ()
Sea Level Pressure  
Sea Level Pressure 30.30 in    
Wind  
Wind Speed 6 mph (ENE)    
Max Wind Speed 12 mph    
Max Gust Speed 21 mph    
Visibility 9 miles    
Events Rain , Snow    
Averages and records for this station are not official NWS values.
T = Trace of Precipitation, MM = Missing Value Source: NWS Daily Summary

Daily Weather History Graph

Daily Weather History Graph

Search for Another Location

Airport or City:

Trip Planner

Search our weather history database for the weather conditions in past years. The results will help you decide how hot, cold, wet, or windy it might be!

Date:

Astronomy

Nov. 03, 2013 Rise Set
Actual Time 6:53 AM EST 5:07 PM EST
Civil Twilight 6:24 AM EST 5:36 PM EST
Nautical Twilight 5:50 AM EST 6:10 PM EST
Astronomical Twilight 5:17 AM EST 6:42 PM EST
Moon 6:55 AM EST (11/3) 5:20 PM EST (11/3)
Length of Visible Light 11h 12m
Length of Day
10h 13m
New Moon, 0% of the Moon is Illuminated
Nov 3
New Moon
Nov 10
First Quarter
Nov 17
Full
Nov 25
Last Quarter
Dec 2
New

Hourly Weather History & Observations

Time (EST) Temp. Windchill Dew Point Humidity Pressure Visibility Wind Dir Wind Speed Gust Speed Precip Events Conditions
12:53 AM 39.9 °F 32.9 °F 33.1 °F 77% 30.04 in 10.0 mi North 11.5 mph 20.7 mph N/A   Overcast
1:40 AM 35.6 °F 29.9 °F 33.8 °F 93% 30.05 in 4.0 mi ENE 6.9 mph - 0.01 in Rain Rain
1:53 AM 35.1 °F 29.3 °F 33.1 °F 92% 30.08 in 6.0 mi ESE 6.9 mph - 0.03 in Rain Light Rain
1:49 AM 35.6 °F - 33.8 °F 93% 30.08 in 4.0 mi Calm Calm - 0.06 in Snow Light Snow
1:53 AM 34.0 °F - 32.0 °F 92% 30.10 in 4.0 mi Calm Calm - 0.06 in Snow Light Snow
2:32 AM 33.8 °F 29.6 °F 32.0 °F 93% 30.09 in 7.0 mi East 4.6 mph - 0.04 in Snow Light Snow
2:53 AM 34.0 °F 28.8 °F 32.0 °F 92% 30.12 in 8.0 mi East 5.8 mph - 0.04 in Snow Light Snow
3:53 AM 35.1 °F 31.0 °F 33.1 °F 92% 30.15 in 10.0 mi ESE 4.6 mph - 0.00 in   Overcast
4:53 AM 35.1 °F 30.1 °F 32.0 °F 89% 30.18 in 8.0 mi ENE 5.8 mph - 0.00 in Snow Light Snow
5:53 AM 35.1 °F - 32.0 °F 89% 30.22 in 10.0 mi Calm Calm - 0.00 in   Overcast
6:53 AM 34.0 °F 28.8 °F 30.9 °F 89% 30.25 in 10.0 mi ESE 5.8 mph - 0.01 in   Overcast
7:36 AM 35.6 °F - 30.2 °F 81% 30.25 in 10.0 mi Calm Calm - N/A   Overcast
7:53 AM 35.1 °F 32.2 °F 30.9 °F 85% 30.28 in 10.0 mi East 3.5 mph - N/A   Overcast
8:07 AM 35.6 °F 32.8 °F 30.2 °F 81% 30.27 in 10.0 mi ENE 3.5 mph - N/A   Overcast
8:53 AM 35.1 °F 31.0 °F 28.9 °F 78% 30.32 in 10.0 mi Variable 4.6 mph - N/A   Overcast
9:20 AM 35.6 °F 29.9 °F 26.6 °F 70% 30.31 in 10.0 mi NNE 6.9 mph - N/A   Overcast
9:53 AM 35.1 °F 28.6 °F 26.1 °F 70% 30.34 in 10.0 mi NNE 8.1 mph - N/A   Mostly Cloudy
10:53 AM 36.0 °F 29.0 °F 26.1 °F 67% 30.38 in 10.0 mi North 9.2 mph - N/A   Overcast
11:53 AM 36.0 °F 29.6 °F 24.1 °F 62% 30.38 in 10.0 mi NNW 8.1 mph - N/A   Overcast
12:53 PM 36.0 °F 29.0 °F 23.0 °F 59% 30.38 in 10.0 mi North 9.2 mph - N/A   Overcast
1:53 PM 37.0 °F 31.0 °F 24.1 °F 59% 30.39 in 10.0 mi North 8.1 mph - N/A   Overcast
2:53 PM 36.0 °F 29.6 °F 21.9 °F 57% 30.41 in 10.0 mi North 8.1 mph - N/A   Mostly Cloudy
3:53 PM 36.0 °F 32.1 °F 21.0 °F 55% 30.43 in 10.0 mi NNE 4.6 mph - N/A   Mostly Cloudy
4:53 PM 35.1 °F 32.2 °F 21.0 °F 57% 30.44 in 10.0 mi NNE 3.5 mph - N/A   Scattered Clouds
5:53 PM 30.0 °F - 24.1 °F 79% 30.46 in 10.0 mi Calm Calm - N/A   Partly Cloudy
6:53 PM 28.9 °F - 25.0 °F 85% 30.47 in 10.0 mi Calm Calm - N/A   Partly Cloudy
7:53 PM 30.0 °F 24.1 °F 23.0 °F 75% 30.50 in 10.0 mi East 5.8 mph - N/A   Partly Cloudy
8:53 PM 30.0 °F 23.2 °F 21.9 °F 72% 30.52 in 10.0 mi East 6.9 mph - N/A   Clear
9:53 PM 28.9 °F 23.9 °F 21.0 °F 72% 30.54 in 10.0 mi ESE 4.6 mph - N/A   Clear
10:53 PM 28.0 °F 22.8 °F 19.9 °F 72% 30.54 in 10.0 mi ESE 4.6 mph - N/A   Clear